Wind_Speed
10 9 9 9 8 9 8 7 5 4 4 4 4 4 4 5 5 7 9 11 12 12 13 14 15 15 20 15 14 15 15 14 13 12 10 10 10 9 9 9 8 8 6
11 10 10 9 9 7 7 6 6 6 5 5 6 7 8 6 8 11 13 13 13 13 14 17 16 15 16 15 15 16 16 16 14 15 14 11 9 9 9 9 8 8 7
10 10 10 11 9 8 8 7 6 7 7 8 9 8 7 10 10 13 15 17 15 15 16 17 17 16 13 15 15 13 14 15 15 15 14 14 11 10 9 8 8 7 6
9 11 11 12 11 10 8 7 7 7 9 10 9 10 12 14 15 18 19 20 18 18 18 18 16 11 12 16 16 15 15 15 16 16 14 16 15 12 11 9 9 7 4
11 13 14 11 12 10 8 7 7 9 9 10 13 15 16 16 19 19 20 20 19 20 19 14 13 10 13 17 15 13 15 16 16 15 13 12 15 15 13 12 11 9 6
14 14 14 14 13 12 9 9 10 12 14 15 17 18 18 19 22 23 24 22 23 20 14 13 11 13 15 17 14 13 14 16 16 14 13 12 11 11 18 15 14 9 8
17 15 13 14 14 14 10 12 13 15 17 17 19 20 24 22 27 25 24 21 20 17 12 12 14 12 14 13 13 15 16 15 16 16 16 14 14 12 10 11 19 19 14
19 18 16 12 11 13 14 14 15 17 18 18 20 23 25 23 20 11 12 12 11 7 9 13 11 12 10 13 14 16 16 15 14 15 16 15 14 12 12 14 13 15 21
18 23 21 19 17 17 17 19 20 21 22 22 22 22 11 7 10 12 11 11 7 9 11 14 14 13 11 13 14 16 16 14 13 13 14 14 15 14 11 10 13 15 15
25 24 22 19 17 17 19 20 22 24 24 25 24 23 21 23 13 11 9 12 11 13 15 16 15 14 17 15 15 15 15 15 15 15 14 14 14 12 11 9 11 12 13
24 23 22 15 15 18 18 25 25 23 23 24 23 23 22 20 20 22 23 19 19 19 19 19 20 18 20 17 16 14 15 14 14 15 13 12 13 15 16 15 16 17 16
25 23 20 20 19 21 25 24 23 24 24 23 22 22 22 22 21 18 19 23 25 22 22 20 22 20 21 18 17 15 16 14 15 13 7 7 11 14 14 15 15 15 15
26 21 21 23 23 24 21 21 23 23 23 22 21 22 21 22 22 23 22 20 22 22 21 23 24 23 21 19 15 17 16 16 16 16 14 14 12 7 7 9 7 9 16
22 20 20 21 17 19 22 21 22 22 23 24 23 23 23 22 20 20 21 22 22 22 24 20 22 25 25 19 14 19 18 16 17 15 12 10 5 1 3 3 1 2 4
24 21 14 15 18 20 20 24 24 24 24 25 24 24 23 21 19 19 19 21 21 22 19 20 25 25 23 17 16 19 18 16 17 13 9 7 4 5 5 3 2 5 5
12 15 17 24 24 23 24 24 26 26 27 25 25 24 23 20 17 18 18 18 19 24 23 25 23 20 16 16 16 18 17 17 14 11 8 6 4 7 6 6 6 6 5
22 28 25 21 22 24 24 26 25 25 26 26 26 24 21 18 18 19 18 17 17 16 18 16 17 18 19 15 18 17 17 16 12 10 8 6 4 7 9 9 7 6 6
23 21 20 22 24 23 23 25 26 24 23 24 23 20 18 19 20 20 21 21 23 24 22 23 23 21 19 18 18 18 16 14 11 10 9 8 6 7 9 10 10 10 9
20 21 22 21 21 21 22 24 23 22 21 21 22 20 19 19 21 21 21 22 22 22 22 20 20 19 18 18 19 18 14 12 11 11 11 10 9 9 9 10 10 13 13
22 20 20 20 20 22 23 22 22 21 20 20 21 19 19 17 18 18 17 17 18 17 16 16 17 17 18 17 18 14 12 12 11 11 12 12 10 9 11 12 11 11 12
20 19 19 20 21 21 21 20 20 20 19 17 17 17 17 18 18 18 17 17 17 14 13 13 13 14 16 17 15 12 13 12 12 12 11 11 11 9 10 11 12 12 13
19 19 20 20 21 20 19 18 18 18 16 15 14 15 16 17 18 18 18 15 14 14 15 13 13 14 14 14 11 10 11 10 10 11 10 10 9 7 7 6 6 7 8
21 20 20 21 20 18 17 16 16 15 14 13 13 13 14 14 14 14 12 11 11 13 14 14 13 15 14 11 11 11 11 10 10 10 8 8 6 5 4 4 4 4 4
21 21 21 21 19 16 15 14 14 14 13 12 13 12 11 11 11 10 9 10 9 8 9 9 10 11 12 11 12 11 11 9 8 7 7 6 6 5 5 5 5 6 5
22 21 21 21 18 15 14 14 15 16 13 13 13 12 12 11 10 9 9 10 9 8 8 7 9 10 10 10 11 10 9 8 7 7 7 6 7 6 6 6 7 6 6
23 22 21 20 16 14 13 15 15 12 11 12 12 11 9 9 10 8 8 9 8 8 8 8 7 6 7 8 7 7 8 7 7 7 8 8 7 6 5 8 8 8 8
Wind_Direction
215 225 220 208 207 208 208 211 212 213 227 245 266 288 314 330 341 347 337 332 337 329 320 330 328 329 329 332 320 315 311 314 314 316 322 333 343 347 344 337 334 336 348
225 236 223 215 214 210 209 217 226 235 247 270 290 303 309 315 324 313 301 303 304 309 295 304 306 314 324 313 317 311 303 299 298 304 310 312 316 327 333 335 334 333 340
239 236 233 223 217 212 216 228 245 260 272 283 291 294 300 306 305 301 300 298 294 294 297 300 304 301 304 302 313 306 294 295 298 293 283 292 298 301 310 319 329 332 333
256 245 240 222 219 219 225 234 251 268 281 287 292 304 300 293 291 293 293 292 292 289 286 288 287 277 294 304 309 301 296 287 288 289 288 275 282 293 292 302 303 305 313
254 250 240 227 222 224 231 245 260 275 283 286 286 290 292 295 291 296 290 295 289 294 288 283 285 277 296 306 303 295 297 297 296 295 291 280 273 275 280 288 293 285 274
255 251 240 230 227 228 230 243 259 266 274 284 290 286 291 289 289 285 292 290 293 292 273 273 283 294 305 314 309 304 296 292 294 293 290 284 277 273 262 268 281 280 265
245 245 250 235 231 230 233 253 258 262 275 287 288 291 285 289 289 287 287 290 290 278 264 274 282 283 310 307 327 319 303 294 289 290 288 284 279 268 267 262 259 266 264
237 240 247 245 237 237 243 250 262 268 271 279 284 294 301 302 302 292 295 293 301 273 262 272 276 290 301 303 311 328 316 299 291 288 287 289 285 277 265 261 266 259 248
243 236 235 238 239 244 254 258 266 270 273 275 277 279 290 286 298 296 280 292 277 255 266 273 286 284 287 294 306 326 323 309 302 300 296 288 285 286 289 272 264 256 246
237 236 235 239 250 263 268 268 267 270 275 279 284 279 274 271 277 293 293 267 246 253 263 267 284 276 282 287 299 318 320 312 304 301 298 291 282 286 280 260 253 253 249
241 245 248 258 264 270 274 282 271 273 278 282 283 284 280 274 268 259 271 264 262 264 264 266 269 265 277 284 287 310 317 313 308 314 310 291 276 274 276 275 262 249 240
237 244 248 255 260 272 268 265 271 276 279 280 282 279 278 277 274 267 263 260 268 268 267 266 258 261 266 274 279 300 310 314 313 310 320 309 277 276 286 285 275 259 255
233 240 244 253 260 255 261 270 279 283 282 282 283 278 277 275 272 269 264 263 256 265 262 261 242 255 261 267 276 293 303 308 312 308 297 284 296 307 5 341 298 266 248
246 233 245 259 260 270 279 284 286 288 290 291 288 283 280 273 272 271 271 266 264 260 261 233 266 256 252 251 277 287 294 298 308 305 302 298 281 68 89 102 28 313 297
244 253 244 250 257 267 272 282 285 287 288 289 286 283 278 272 272 269 263 259 264 258 249 264 258 248 249 249 271 281 285 296 305 301 299 298 249 180 191 227 287 325 334
231 243 241 259 263 259 273 279 285 284 283 283 281 279 271 272 267 264 264 255 250 257 271 258 245 243 246 253 264 272 280 292 291 280 285 293 240 196 218 245 251 271 284
249 258 254 251 261 273 281 283 285 286 285 283 281 276 276 264 262 262 260 260 256 241 248 266 265 262 256 254 268 271 280 285 274 265 268 280 260 219 215 229 236 254 266
244 241 252 264 276 278 281 284 284 284 282 279 280 272 262 264 262 260 259 257 257 261 266 268 267 258 254 256 260 272 277 269 263 264 267 270 268 262 249 234 232 233 239
244 258 267 268 272 281 284 285 288 287 284 280 273 271 266 260 264 261 261 264 264 262 257 256 252 249 249 252 260 268 259 250 252 255 260 264 264 262 259 260 247 241 238
259 260 263 273 284 287 288 291 290 288 285 282 275 269 264 262 262 263 263 261 264 261 259 250 240 240 246 251 258 261 239 243 249 258 264 267 265 258 257 255 252 248 244
251 259 271 280 286 288 289 289 288 292 290 284 280 265 261 263 263 263 259 259 261 258 246 241 242 241 241 248 255 252 237 237 245 252 258 264 267 263 260 257 253 251 247
259 268 276 283 286 286 287 290 292 295 290 282 270 260 261 261 262 265 264 260 251 246 245 242 240 241 244 253 260 245 242 246 254 257 253 260 258 253 248 244 245 246 248
262 269 277 282 281 281 283 287 292 289 281 270 262 261 260 262 263 259 253 245 243 245 246 242 237 244 250 251 248 245 253 255 253 254 258 257 241 237 232 222 223 229 230
265 270 277 276 273 274 277 281 283 276 269 259 256 256 257 254 252 250 240 242 238 239 245 243 241 241 244 243 244 249 253 253 251 247 242 239 221 224 233 238 225 225 223
264 270 276 271 269 263 269 274 271 270 259 248 248 247 245 244 245 248 246 245 244 245 250 245 245 243 242 244 245 247 249 247 247 234 219 223 220 226 240 236 230 225 222
264 270 275 273 263 261 263 267 265 260 246 237 238 236 236 236 245 246 245 243 242 246 249 249 242 241 241 243 243 239 239 233 232 229 223 225 218 222 232 225 222 215 244
Height
1554 1555 1556 1557 1558 1559 1560 1561 1562 1563 1564 1564 1564 1564 1563 1563 1563 1563 1563 1562 1562 1561 1560 1559 1557 1557 1555 1553 1552 1551 1549 1549 1548 1547 1546 1546 1546 1544 1542 1541 1541 1541 1540
1553 1554 1554 1555 1556 1558 1559 1561 1561 1561 1562 1562 1563 1563 1563 1562 1562 1562 1561 1561 1560 1559 1558 1558 1555 1555 1555 1553 1552 1550 1548 1547 1546 1546 1545 1544 1544 1544 1543 1541 1540 1540 1541
1550 1551 1552 1553 1555 1555 1557 1559 1560 1561 1561 1561 1561 1561 1561 1561 1560 1560 1558 1558 1557 1556 1554 1555 1553 1552 1552 1551 1549 1548 1547 1546 1544 1543 1543 1542 1542 1543 1542 1541 1540 1539 1540
1549 1549 1549 1550 1553 1554 1555 1556 1557 1558 1559 1560 1560 1560 1560 1559 1558 1557 1556 1555 1552 1553 1551 1551 1550 1549 1550 1549 1547 1545 1543 1543 1542 1541 1541 1540 1540 1540 1540 1539 1539 1539 1539
1548 1548 1548 1548 1550 1551 1553 1554 1556 1557 1558 1558 1558 1557 1557 1556 1555 1554 1552 1551 1549 1548 1548 1547 1547 1547 1546 1546 1544 1543 1541 1540 1539 1538 1538 1537 1537 1537 1538 1538 1537 1538 1538
1547 1548 1547 1547 1548 1550 1551 1552 1554 1556 1556 1556 1555 1554 1553 1553 1551 1550 1548 1546 1545 1545 1544 1544 1544 1545 1545 1543 1541 1540 1538 1537 1536 1535 1534 1534 1533 1533 1533 1535 1535 1536 1536
1544 1546 1546 1546 1546 1548 1549 1550 1551 1552 1553 1553 1551 1550 1548 1547 1547 1544 1543 1541 1540 1540 1541 1542 1542 1542 1542 1541 1540 1538 1536 1534 1533 1533 1531 1531 1530 1531 1531 1531 1532 1532 1534
1540 1543 1545 1545 1545 1546 1546 1548 1549 1548 1549 1549 1549 1546 1542 1541 1540 1539 1539 1539 1538 1538 1539 1541 1539 1539 1539 1538 1537 1535 1533 1531 1530 1529 1528 1527 1527 1527 1527 1527 1528 1528 1529
1536 1539 1540 1542 1542 1542 1544 1544 1545 1544 1544 1544 1544 1545 1542 1538 1537 1536 1536 1535 1536 1537 1537 1538 1537 1538 1536 1536 1535 1533 1531 1529 1528 1526 1525 1524 1524 1523 1524 1524 1523 1524 1525
1533 1534 1536 1536 1538 1540 1541 1541 1541 1540 1540 1539 1538 1538 1537 1537 1537 1535 1534 1534 1534 1533 1534 1534 1534 1534 1534 1533 1532 1531 1529 1527 1525 1523 1522 1522 1521 1520 1519 1520 1521 1521 1521
1528 1530 1532 1534 1535 1537 1536 1537 1537 1536 1534 1534 1533 1533 1532 1532 1533 1532 1530 1531 1530 1530 1529 1530 1529 1530 1530 1529 1528 1527 1526 1525 1524 1520 1519 1518 1516 1515 1514 1514 1515 1516 1518
1521 1525 1527 1530 1531 1532 1533 1533 1533 1531 1530 1528 1527 1529 1527 1527 1526 1526 1526 1527 1526 1525 1525 1525 1526 1525 1525 1525 1524 1524 1522 1521 1521 1520 1518 1515 1513 1512 1511 1510 1510 1512 1513
1515 1516 1523 1526 1526 1527 1529 1529 1528 1527 1525 1522 1521 1522 1521 1521 1521 1520 1520 1521 1522 1521 1520 1520 1520 1521 1520 1521 1520 1520 1519 1518 1518 1515 1513 1512 1511 1509 1510 1509 1507 1507 1508
1514 1513 1517 1520 1523 1525 1524 1523 1522 1520 1519 1517 1516 1515 1514 1516 1516 1516 1516 1517 1515 1515 1515 1514 1516 1516 1516 1515 1517 1518 1517 1515 1513 1512 1509 1509 1508 1508 1509 1508 1507 1509 1507
1510 1512 1514 1516 1517 1517 1516 1516 1516 1514 1513 1511 1510 1510 1509 1510 1508 1510 1509 1511 1511 1511 1509 1510 1511 1510 1511 1512 1512 1513 1514 1512 1510 1509 1506 1506 1506 1506 1507 1506 1506 1507 1508
1506 1507 1509 1511 1510 1511 1511 1510 1510 1508 1508 1505 1504 1504 1503 1503 1503 1504 1505 1504 1503 1506 1506 1505 1505 1505 1506 1507 1508 1508 1510 1509 1507 1506 1504 1503 1503 1503 1505 1506 1505 1506 1508
1502 1503 1504 1505 1507 1507 1506 1505 1503 1501 1500 1500 1499 1497 1497 1498 1498 1500 1499 1500 1499 1500 1501 1501 1502 1503 1503 1503 1503 1503 1504 1505 1502 1503 1502 1501 1502 1501 1501 1504 1504 1504 1506
1497 1499 1500 1501 1502 1501 1499 1499 1496 1494 1493 1494 1494 1492 1491 1493 1493 1494 1494 1493 1495 1496 1497 1498 1500 1500 1499 1498 1498 1499 1500 1501 1500 1501 1500 1499 1500 1501 1501 1499 1501 1502 1504
1494 1494 1495 1496 1496 1494 1494 1493 1490 1488 1488 1487 1488 1488 1487 1487 1488 1488 1488 1489 1489 1491 1490 1491 1494 1496 1496 1494 1493 1494 1495 1496 1496 1497 1498 1497 1496 1497 1497 1499 1497 1499 1501
1488 1490 1490 1490 1489 1488 1487 1485 1485 1484 1483 1483 1481 1482 1482 1482 1483 1483 1481 1484 1485 1486 1486 1488 1488 1491 1490 1489 1490 1490 1491 1492 1493 1494 1495 1495 1493 1493 1495 1495 1494 1495 1496
1483 1484 1484 1484 1483 1483 1482 1481 1481 1478 1479 1478 1476 1477 1478 1478 1479 1478 1478 1479 1480 1481 1483 1485 1486 1485 1487 1486 1486 1488 1488 1487 1488 1488 1490 1493 1493 1489 1491 1491 1492 1492 1492
1478 1478 1478 1478 1478 1478 1477 1476 1475 1474 1474 1473 1473 1474 1474 1474 1475 1475 1475 1474 1476 1478 1480 1480 1481 1484 1484 1484 1484 1486 1487 1486 1487 1487 1485 1488 1489 1486 1488 1488 1489 1489 1489
1473 1473 1473 1473 1473 1473 1472 1472 1471 1470 1469 1469 1470 1470 1470 1470 1471 1471 1471 1472 1471 1473 1476 1476 1475 1480 1481 1480 1482 1483 1485 1484 1483 1484 1483 1485 1486 1485 1486 1486 1487 1488 1488
1468 1468 1467 1467 1467 1467 1467 1468 1467 1466 1466 1466 1467 1467 1467 1468 1468 1468 1469 1469 1469 1470 1472 1472 1474 1475 1478 1478 1481 1480 1482 1482 1481 1481 1482 1483 1484 1484 1485 1485 1485 1486 1486
1462 1463 1462 1462 1462 1462 1462 1463 1463 1462 1462 1463 1464 1465 1465 1465 1466 1466 1467 1468 1468 1469 1470 1469 1472 1473 1474 1476 1478 1478 1478 1478 1478 1479 1480 1481 1482 1483 1483 1483 1483 1484 1485
1457 1457 1457 1456 1456 1458 1458 1459 1459 1458 1458 1459 1461 1461 1462 1463 1464 1464 1465 1466 1465 1466 1467 1469 1470 1470 1472 1474 1475 1475 1475 1475 1476 1477 1478 1480 1480 1481 1481 1481 1482 1482 1483